Content
SEND FEEDBACK

Daily
Averages
Monthly
Summary
United States of America

GLEN CANYON CITY, UTAH


Home > North America > United States > Utah
Elevation: 4133 feet     Latitude: 37 05N     Longitude: 111 40W

WEATHER
 
SELECT A DAY
Number of Records: 194,702;   Date Range: 1/1/95 - 7/26/14
 
SHARE

PRINT THIS DATA

[ ← Previous Day ]
WEATHER ALMANAC - MAY 3, 2013
[ Next Day → ]
[ °C ]   °F
Weather ElementAverageHighLow
Temperature60 °F73 °F (5:53 pm)46 °F (3:53 am)
Dewpoint5.9 °F10 °F (2:53 am)-0.9 °F (2:53 pm)
Humidity12.9 %22 % (2:53 am)6 % (2:53 pm)
Barometer30.01 in30.23 in (1:53 am)29.79 in (11:53 pm)
Wind Speed3 mph10.4 mph (1:53 pm)
Weather ElementAverage
Visibility10 mi
Wind DirectionENE (72.2 °)

Weather ElementTotal
Precipitation---
Heating Degree Days5.5 (Base 65)
Growing Degree Days9.5 (Base 50)
Averaged from 23 records on May 3, 2013
WEATHER CONDITIONS BREAKOUT
WIND DIRECTION BREAKOUT
WEATHER BY HOUR - MAY 3, 2013
[ °C ]   °F
Local TimeTemperatureDewpointHumidityBarometerVisibilityWind DirectionWind SpeedGust SpeedPrecipitationEventsConditions
1:53 AM48.9 °F9.0 °F20 %30.23 in10.0 miCalmClear
2:53 AM46.9 °F10.0 °F22 %30.21 in10.0 miCalmClear
3:53 AM46.0 °F9.0 °F22 %30.20 in10.0 miCalmClear
4:53 AM46.0 °F9.0 °F22 %30.20 in10.0 miCalmClear
5:53 AM46.9 °F7.0 °F20 %30.19 in10.0 miSW (230°)4.6 mphClear
6:53 AM48.0 °F9.0 °F21 %30.18 in10.0 miSE (140°)4.6 mphClear
7:53 AM53.1 °F8.1 °F16 %30.18 in10.0 miCalmClear
8:53 AM55.9 °F9.0 °F15 %30.16 in10.0 miCalmClear
9:53 AM57.9 °F9.0 °F14 %30.14 in10.0 miNNW (330°)5.8 mphClear
10:53 AM62.1 °F8.1 °F12 %30.11 in10.0 miVariable3.5 mphClear
11:53 AM66.0 °F7.0 °F10 %30.06 in10.0 miVariable6.9 mphClear
12:53 PM66.9 °F3.9 °F8 %30.01 in10.0 miVariable3.5 mphClear
1:53 PM70.0 °F3.9 °F7 %29.97 in10.0 miNorth (10°)10.4 mphClear
2:53 PM71.1 °F-0.9 °F6 %29.93 in10.0 miNorth (350°)5.8 mphClear
3:53 PM72.0 °F-0.9 °F6 %29.88 in10.0 miCalmClear
4:53 PM72.0 °F1.0 °F6 %29.86 in10.0 miCalmClear
5:53 PM73.0 °F1.0 °F6 %29.82 in10.0 miNE (40°)5.8 mphClear
6:53 PM70.0 °F1.0 °F7 %29.81 in10.0 miNE (40°)5.8 mphClear
7:53 PM64.9 °F6.1 °F10 %29.82 in9.0 miCalmClear
8:53 PM62.1 °F8.1 °F12 %29.82 in10.0 miCalmClear
9:53 PM60.1 °F5.0 °F11 %29.82 in10.0 miSE (140°)4.6 mphClear
10:53 PM60.1 °F7.0 °F12 %29.80 in10.0 miSouth (170°)3.5 mphClear
11:53 PM59.0 °F6.1 °F12 %29.79 in10.0 miSSW (210°)4.6 mphClear
Hourly data recorded from KPGA, located miles away from Glen Canyon City, Utah







STORIES FROM OUR PARTNERS